Flag for Germany Weather past 2 weeks in Weil am Rhein, Baden-Württemberg, Germany

40 °F


Feels Like: 36 °F
Forecast: 48 / 52 °F
Wind: 5 mph from Southwest

Location: Bale-Mulhouse

Current Time: Nov 29, 2015 at 3:12:15 AM

Latest Report: Nov 29, 2015 at 2:00 AM

Visibility: 37 mi

Pressure: 30.28 "Hg

Humidity: 71%

Dew point: 31 °F

Location of Weil am RheinLocation

Historic Weather in Weil am Rhein — Graph


Weil am Rhein temperature yesterday

Maximum temperature yesterday: 42 °F (at 1:00 PM)
Minimum temperature yesterday: 29 °F (at 2:00 AM)
Average temperature yesterday: 35 °F

Past Weeks' High & Low Weather Summary

High65 °F (Nov 15, 2:00 PM)98% (Nov 25, 9:00 AM)30.54 "Hg (Nov 25, 9:00 AM)
Low24 °F (Nov 24, 8:00 AM)42% (Nov 16, 1:00 PM)29.44 "Hg (Nov 21, 1:00 PM)
Average45 °F80%30.08 "Hg
* Reported Nov 13 10:00 PM — Nov 28 10:00 PM, Weil am Rhein, Weather by CustomWeather, © 2015

Note: Actual official high and low records may vary slightly from our data, if they occured in-between our weather recording intervals... More about our weather records


Weil am Rhein weather history for previous 24 hours

Time TempWeatherWind HumidityBarometerVisibility
10:00 PM
Sat, Nov 28
34 °FOvercast.6 mph84%30.30 "Hg16 mi
9:00 PM34 °FOvercast.3 mph84%30.29 "Hg16 mi
8:00 PM34 °FOvercast.3 mph84%30.28 "Hg16 mi
7:00 PM36 °FPassing clouds.7 mph81%30.27 "Hg16 mi
6:00 PM36 °FPassing clouds.5 mph84%30.26 "Hg16 mi
5:00 PM38 °FPassing clouds.6 mph85%30.24 "Hg16 mi
4:00 PM40 °FPartly sunny.6 mph81%30.22 "Hg16 mi
3:00 PM42 °FPassing clouds.13 mph78%30.18 "Hg16 mi
2:00 PM42 °FScattered clouds.16 mph79%30.15 "Hg16 mi
1:00 PM42 °FPartly sunny.17 mph83%30.13 "Hg12 mi
12:00 PM41 °FPartly sunny.18 mph87%30.12 "Hg12 mi
11:00 AM39 °FPartly sunny.18 mph88%30.11 "Hg12 mi
10:00 AM35 °FFog.7 mph95%30.10 "Hg3 mi
9:00 AM33 °FOvercast.5 mph95%30.07 "Hg2 mi
7:00 AM33 °FOvercast.5 mph93%30.01 "Hg3 mi
6:00 AM32 °FLight snow. Overcast.3 mph93%30.00 "Hg2 mi
5:00 AM32 °FLow clouds.3 mph95%30.01 "Hg5 mi
4:00 AM31 °FLow clouds.3 mph95%30.02 "Hg4 mi
3:00 AM30 °FLow clouds.2 mph95%30.03 "Hg4 mi
Weather by CustomWeather, © 2015

See weather overviewHow to use our weather pages